Location: Zagreb
(45.8000°N, 16.0000°E)
Time: 12:03:38
(UTC+01:00)

Vanguard 1 Rocket - Pass Details

Date: 04 October 2020
Orbit: 656 x 4221 km, 34.3° (Epoch: 28 October)

Event Time Altitude Azimuth Distance (km) Brightness Sun altitude
Rises 15:59:20 0° 208° (SSW) 3,972 11.7 23.6°
Reaches altitude 10° 16:02:06 10° 195° (SSW) 3,354 11.2 23.2°
Maximum altitude 16:09:12 27° 140° (SE) 3,100 10.2 22.2°
Drops below altitude 10° 16:20:44 10° 91° (E) 5,626 11.0 20.5°
Sets 16:27:13 0° 82° (E) 7,273 11.4 19.5°
